Location: Greenwich
(51.4790°N, 0.0090°E)
Time: 14:08:34
(UTC+01:00)

Altair - Pass Details

Date: 25 June 2025
Orbit: 1502 x 1682 km, 47.2° (Epoch: 19 July)

Event Time Altitude Azimuth Distance (km) Brightness Sun altitude
Rises 23:38:09 0° 244° (WSW) 4,631 10.0 -12.9°
Reaches altitude 10° 23:41:11 10° 241° (WSW) 3,656 9.4 -13.0°
Maximum altitude 23:50:10 62° 164° (SSE) 1,691 7.4 -13.5°
Drops below altitude 10° 23:59:25 10° 87° (E) 3,759 9.4 -13.9°
Sets 00:02:35 0° 84° (E) 4,768 10.0 -14.0°
